Location: Unspecified
(0.0000°N, 0.0000°E)
Time: 11:31:07
(UTC+00:00)

A-11 Canister half - Pass Details

Date: 24 November 2019
Orbit: 1515 x 1685 km, 47.2° (Epoch: 08 December)

Event Time Altitude Azimuth Distance (km) Brightness Sun altitude
Rises 11:45:47 0° 199° (SSW) 4,686 11.8 69.5°
Reaches altitude 10° 11:49:22 10° 188° (S) 3,721 11.5 69.4°
Maximum altitude 11:57:16 30° 131° (SE) 2,541 10.9 69.3°
Drops below altitude 10° 12:05:19 10° 74° (ENE) 3,824 11.1 69.0°
Sets 12:09:00 0° 64° (ENE) 4,835 11.5 68.7°
